TimeCDT,TemperatureF,Dew PointF,Humidity,Sea Level PressureIn,VisibilityMPH,Wind Direction,Wind SpeedMPH,Gust SpeedMPH,PrecipitationIn,Events,Conditions,WindDirDegrees,DateUTC
12:15 AM,37.9,22.1,53,29.97,10.0,South,9.2,-,N/A,,Clear,170,2013-10-20 05:15:00
12:35 AM,38.7,21.7,51,29.97,10.0,South,9.2,-,N/A,,Clear,180,2013-10-20 05:35:00
12:55 AM,38.1,23.5,56,29.96,10.0,South,8.1,-,N/A,,Clear,190,2013-10-20 05:55:00
1:15 AM,40.3,24.4,53,29.95,10.0,South,8.1,-,N/A,,Clear,190,2013-10-20 06:15:00
1:35 AM,39.2,24.6,56,29.95,10.0,South,8.1,-,N/A,,Clear,190,2013-10-20 06:35:00
1:55 AM,38.5,24.6,58,29.93,10.0,SSW,8.1,-,N/A,,Clear,200,2013-10-20 06:55:00
2:15 AM,37.4,24.3,59,29.93,10.0,SSW,8.1,-,N/A,,Clear,210,2013-10-20 07:15:00
2:35 AM,39.7,25.0,56,29.92,10.0,SSW,9.2,-,N/A,,Clear,210,2013-10-20 07:35:00
2:55 AM,41.4,25.3,53,29.92,10.0,SW,10.4,-,N/A,,Clear,220,2013-10-20 07:55:00
3:15 AM,41.4,25.5,53,29.91,10.0,SW,10.4,-,N/A,,Clear,220,2013-10-20 08:15:00
3:35 AM,40.3,25.5,56,29.91,10.0,SW,8.1,-,N/A,,Clear,230,2013-10-20 08:35:00
3:55 AM,40.5,24.8,54,29.90,10.0,SW,9.2,-,N/A,,Clear,230,2013-10-20 08:55:00
4:15 AM,40.1,24.6,54,29.89,10.0,SW,9.2,-,N/A,,Clear,230,2013-10-20 09:15:00
4:35 AM,38.5,24.3,57,29.89,10.0,SSW,5.8,-,N/A,,Clear,210,2013-10-20 09:35:00
4:55 AM,36.7,23.7,59,29.88,10.0,SW,5.8,-,N/A,,Clear,220,2013-10-20 09:55:00
5:15 AM,35.8,23.4,61,29.88,10.0,SW,5.8,-,N/A,,Clear,230,2013-10-20 10:15:00
5:35 AM,36.0,23.7,61,29.87,10.0,WSW,5.8,-,N/A,,Clear,250,2013-10-20 10:35:00
5:55 AM,34.3,23.7,65,29.87,10.0,WSW,8.1,-,N/A,,Clear,240,2013-10-20 10:55:00
6:15 AM,31.3,23.4,72,29.87,10.0,SSW,6.9,-,N/A,,Clear,210,2013-10-20 11:15:00
6:35 AM,32.4,23.5,70,29.88,10.0,SW,8.1,-,N/A,,Clear,230,2013-10-20 11:35:00
6:55 AM,33.3,24.1,69,29.88,10.0,WSW,6.9,-,N/A,,Clear,240,2013-10-20 11:55:00
7:15 AM,35.2,24.8,66,29.88,10.0,WSW,9.2,-,N/A,,Clear,240,2013-10-20 12:15:00
7:35 AM,35.4,24.4,64,29.87,10.0,WSW,10.4,-,N/A,,Clear,240,2013-10-20 12:35:00
7:55 AM,35.1,23.9,64,29.87,10.0,West,8.1,-,N/A,,Clear,260,2013-10-20 12:55:00
8:15 AM,33.6,23.9,68,29.88,10.0,WSW,10.4,-,N/A,,Clear,250,2013-10-20 13:15:00
8:35 AM,37.6,23.9,58,29.88,10.0,WSW,10.4,-,N/A,,Clear,250,2013-10-20 13:35:00
8:55 AM,39.7,25.0,56,29.88,10.0,WSW,9.2,-,N/A,,Clear,250,2013-10-20 13:55:00
9:15 AM,42.4,26.4,53,29.88,10.0,West,9.2,-,N/A,,Clear,270,2013-10-20 14:15:00
9:35 AM,45.9,27.3,48,29.88,10.0,West,9.2,-,N/A,,Clear,270,2013-10-20 14:35:00
9:55 AM,49.6,27.7,43,29.88,10.0,West,10.4,-,N/A,,Clear,270,2013-10-20 14:55:00
10:15 AM,54.0,27.7,36,29.88,10.0,West,9.2,-,N/A,,Clear,280,2013-10-20 15:15:00
10:35 AM,57.4,28.0,33,29.88,10.0,West,9.2,-,N/A,,Clear,280,2013-10-20 15:35:00
10:55 AM,61.5,27.1,27,29.88,10.0,West,6.9,-,N/A,,Clear,270,2013-10-20 15:55:00
11:15 AM,64.8,25.0,22,29.87,10.0,NW,8.1,-,N/A,,Clear,320,2013-10-20 16:15:00
11:35 AM,67.1,21.4,18,29.87,10.0,NNW,11.5,18.4,N/A,,Clear,340,2013-10-20 16:35:00
11:55 AM,68.7,21.7,17,29.87,10.0,NNW,12.7,-,N/A,,Clear,340,2013-10-20 16:55:00
12:15 PM,68.7,21.9,17,29.86,10.0,North,10.4,17.3,N/A,,Clear,350,2013-10-20 17:15:00
12:35 PM,70.0,23.7,18,29.86,10.0,North,12.7,-,N/A,,Clear,350,2013-10-20 17:35:00
12:55 PM,69.6,23.2,17,29.86,10.0,North,13.8,19.6,N/A,,Clear,350,2013-10-20 17:55:00
1:15 PM,71.1,24.1,17,29.86,10.0,North,11.5,19.6,N/A,,Clear,350,2013-10-20 18:15:00
1:35 PM,71.2,23.7,17,29.85,10.0,North,16.1,21.9,N/A,,Clear,360,2013-10-20 18:35:00
1:55 PM,71.1,23.9,17,29.85,10.0,North,17.3,24.2,N/A,,Clear,360,2013-10-20 18:55:00
2:15 PM,70.7,23.2,17,29.84,10.0,North,15.0,20.7,N/A,,Clear,350,2013-10-20 19:15:00
2:35 PM,72.0,24.6,17,29.83,10.0,North,15.0,19.6,N/A,,Clear,10,2013-10-20 19:35:00
2:55 PM,71.2,23.0,16,29.83,10.0,North,11.5,19.6,N/A,,Clear,10,2013-10-20 19:55:00
3:15 PM,71.6,22.8,16,29.83,10.0,NNE,15.0,-,N/A,,Clear,30,2013-10-20 20:15:00
3:35 PM,70.9,23.9,17,29.83,10.0,NNE,10.4,18.4,N/A,,Clear,20,2013-10-20 20:35:00
3:55 PM,71.6,25.7,18,29.83,10.0,NNE,12.7,18.4,N/A,,Clear,20,2013-10-20 20:55:00
4:15 PM,70.5,25.5,19,29.83,10.0,North,13.8,17.3,N/A,,Clear,10,2013-10-20 21:15:00
4:35 PM,69.6,26.1,20,29.84,10.0,North,13.8,20.7,N/A,,Clear,10,2013-10-20 21:35:00
4:55 PM,68.9,28.2,22,29.86,10.0,NNE,12.7,20.7,N/A,,Clear,20,2013-10-20 21:55:00
5:15 PM,68.2,29.8,24,29.86,10.0,North,13.8,19.6,N/A,,Clear,10,2013-10-20 22:15:00
5:35 PM,67.1,31.3,26,29.87,10.0,North,15.0,20.7,N/A,,Clear,10,2013-10-20 22:35:00
5:55 PM,65.3,30.6,27,29.88,10.0,North,13.8,-,N/A,,Clear,10,2013-10-20 22:55:00
6:15 PM,64.2,31.3,29,29.88,10.0,North,15.0,23.0,N/A,,Clear,10,2013-10-20 23:15:00
6:35 PM,62.4,32.2,32,29.89,10.0,North,16.1,-,N/A,,Clear,10,2013-10-20 23:35:00
6:55 PM,60.4,32.2,35,29.90,10.0,North,12.7,18.4,N/A,,Clear,10,2013-10-20 23:55:00
7:15 PM,58.1,32.9,39,29.91,10.0,NNE,11.5,-,N/A,,Clear,20,2013-10-21 00:15:00
7:35 PM,56.7,32.9,41,29.92,10.0,NNE,12.7,-,N/A,,Clear,20,2013-10-21 00:35:00
7:55 PM,55.4,33.3,43,29.93,10.0,NNE,12.7,-,N/A,,Clear,20,2013-10-21 00:55:00
8:15 PM,54.0,33.4,46,29.95,10.0,NNE,13.8,-,N/A,,Clear,20,2013-10-21 01:15:00
8:35 PM,53.1,33.8,48,29.96,10.0,NNE,12.7,-,N/A,,Clear,20,2013-10-21 01:35:00
8:55 PM,52.7,33.8,49,29.97,10.0,NNE,12.7,-,N/A,,Clear,20,2013-10-21 01:55:00
9:15 PM,51.4,34.5,52,29.98,10.0,NNE,13.8,20.7,N/A,,Clear,20,2013-10-21 02:15:00
9:35 PM,50.2,34.9,56,30.00,10.0,NNE,10.4,-,N/A,,Clear,20,2013-10-21 02:35:00
9:55 PM,49.1,35.4,59,30.00,10.0,NNE,12.7,-,N/A,,Clear,20,2013-10-21 02:55:00
10:15 PM,48.4,35.6,61,30.01,10.0,NNE,11.5,-,N/A,,Clear,20,2013-10-21 03:15:00
10:35 PM,48.2,35.6,62,30.02,10.0,NNE,11.5,-,N/A,,Clear,20,2013-10-21 03:35:00
10:55 PM,48.2,35.6,62,30.02,10.0,North,13.8,19.6,N/A,,Clear,10,2013-10-21 03:55:00
11:15 PM,47.8,35.8,63,30.03,10.0,North,13.8,19.6,N/A,,Clear,10,2013-10-21 04:15:00
11:35 PM,47.3,36.0,65,30.03,10.0,North,13.8,20.7,N/A,,Clear,10,2013-10-21 04:35:00
11:55 PM,46.6,36.0,67,30.04,10.0,North,12.7,-,N/A,,Clear,10,2013-10-21 04:55:00